User: anonymous   Login
Location: ???????
(52.3000°N, 54.4667°E)
Time: 12:34:39
(UTC+00:00)
Language:

ATLAS 5 CENTAUR R/B - Orbit

View from above orbital plane
View from above orbital plane
View from above satellite
View from above satellite

Ground track
Ground track

The orbit data is extracted from the following two-line orbital elements,

1 31702U 07027B   20097.09021587 0.00000000  00000-0  00000-0 0    02
2 31702  63.3602 116.0034 0398196  14.1646 345.8354 14.18765179    09
Epoch (UTC): 06 April 2020 02:09:54
Eccentricity: 0.0398196
inclination: 63.3602°
perigee height: 542 km
apogee height: 1116 km
right ascension of ascending node: 116.0034°
argument of perigee: 14.1646°
revolutions per day: 14.18765179
mean anomaly at epoch: 345.8354°
orbit number at epoch: 0

The dashed part of the orbit path shows where the satellite is in the earth's shadow,  

DLR